| time (UTC) | temp F | wind direction | speed MPH | gust MPH | rain 1hr in | rain 24hr in | rain mn in | humidity % | barometer mb |
| 20260509101008 | 47 | 165 | 5.0 | 5.0 | 0.00 | 0.00 | 0.00 | 71 | 1007.1 |
| 20260509100507 | 47 | 169 | 3.0 | 5.0 | 0.00 | 0.00 | 0.00 | 71 | 1007.1 |
| 20260509100007 | 46 | 166 | 2.0 | 5.0 | 0.00 | 0.00 | 0.00 | 71 | 1007.1 |
| 20260509095008 | 46 | 162 | 5.0 | 5.0 | 0.00 | 0.00 | 0.00 | 71 | 1007.6 |
| 20260509094507 | 46 | 174 | 5.0 | 5.0 | 0.00 | 0.00 | 0.00 | 71 | 1007.1 |
| 20260509094009 | 46 | 189 | 5.0 | 7.0 | 0.00 | 0.00 | 0.00 | 71 | 1007.5 |
| 20260509093508 | 46 | 172 | 5.0 | 7.0 | 0.00 | 0.00 | 0.00 | 71 | 1007.1 |
| 20260509093009 | 46 | 172 | 5.0 | 5.0 | 0.00 | 0.00 | 0.00 | 71 | 1007.6 |
| 20260509092508 | 46 | 171 | 5.0 | 7.0 | 0.00 | 0.00 | 0.00 | 71 | 1007.2 |
| 20260509092009 | 46 | 168 | 5.0 | 7.0 | 0.00 | 0.00 | 0.00 | 71 | 1007.1 |
| 20260509090508 | 46 | 176 | 3.0 | 5.0 | 0.00 | 0.00 | 0.00 | 71 | 1008.1 |
| 20260509090007 | 46 | 157 | 5.0 | 5.0 | 0.00 | 0.00 | 0.00 | 71 | 1008.1 |
| 20260509085507 | 46 | 156 | 5.0 | 5.0 | 0.00 | 0.00 | 0.00 | 71 | 1008.1 |
| 20260509084507 | 46 | 171 | 4.0 | 5.0 | 0.00 | 0.00 | 0.00 | 71 | 1008.1 |
| 20260509083008 | 46 | 158 | 5.0 | 5.0 | 0.00 | 0.00 | 0.00 | 70 | 1008.1 |
| 20260509082508 | 46 | 163 | 5.0 | 5.0 | 0.00 | 0.00 | 0.00 | 70 | 1008.1 |
| 20260509081507 | 46 | 162 | 5.0 | 5.0 | 0.00 | 0.00 | 0.00 | 70 | 1008.1 |
| 20260509080507 | 46 | 159 | 5.0 | 5.0 | 0.00 | 0.00 | 0.00 | 69 | 1008.1 |
| 20260509080007 | 46 | 162 | 2.0 | 5.0 | 0.00 | 0.00 | 0.00 | 69 | 1008.1 |
| 20260509075507 | 46 | 157 | 3.0 | 5.0 | 0.00 | 0.00 | 0.00 | 69 | 1008.1 |
| 20260509075008 | 46 | 160 | 5.0 | 5.0 | 0.00 | 0.00 | 0.00 | 69 | 1008.1 |
| 20260509074507 | 46 | 153 | 2.0 | 5.0 | 0.00 | 0.00 | 0.00 | 69 | 1008.1 |
| 20260509074008 | 47 | 158 | 2.0 | 5.0 | 0.00 | 0.00 | 0.00 | 69 | 1008.1 |
| 20260509073507 | 47 | 148 | 2.0 | 5.0 | 0.00 | 0.00 | 0.00 | 69 | 1008.1 |
| 20260509073008 | 47 | 147 | 5.0 | 7.0 | 0.00 | 0.00 | 0.00 | 69 | 1008.1 |
| 20260509072009 | 47 | 172 | 5.0 | 7.0 | 0.00 | 0.00 | 0.00 | 69 | 1008.1 |
| 20260509071009 | 47 | 169 | 5.0 | 7.0 | 0.00 | 0.00 | 0.00 | 69 | 1008.1 |
| 20260509070006 | 47 | 184 | 7.0 | 7.0 | 0.00 | 0.00 | 0.00 | 69 | 1008.1 |
| 20260509065507 | 47 | 172 | 5.0 | 7.0 | 0.00 | 0.00 | 0.00 | 69 | 1008.1 |
| 20260509065008 | 47 | 177 | 5.0 | 7.0 | 0.00 | 0.00 | 0.00 | 69 | 1008.1 |
| 20260509064507 | 47 | 173 | 5.0 | 7.0 | 0.00 | 0.00 | 0.00 | 68 | 1008.1 |
| 20260509064008 | 47 | 182 | 5.0 | 7.0 | 0.00 | 0.00 | 0.00 | 68 | 1008.1 |
| 20260509063508 | 47 | 181 | 5.0 | 7.0 | 0.00 | 0.00 | 0.00 | 68 | 1008.1 |
| 20260509063008 | 47 | 179 | 5.0 | 7.0 | 0.00 | 0.00 | 0.00 | 68 | 1008.1 |
| 20260509062506 | 48 | 184 | 5.0 | 7.0 | 0.00 | 0.00 | 0.00 | 68 | 1008.1 |
| 20260509062008 | 48 | 180 | 5.0 | 7.0 | 0.00 | 0.00 | 0.00 | 68 | 1008.1 |
| 20260509061507 | 48 | 174 | 5.0 | 9.0 | 0.00 | 0.00 | 0.00 | 68 | 1008.1 |
| 20260509061008 | 48 | 174 | 7.0 | 9.0 | 0.00 | 0.00 | 0.00 | 68 | 1008.1 |
| 20260509060507 | 48 | 177 | 7.0 | 9.0 | 0.00 | 0.00 | 0.00 | 68 | 1009.0 |
| 20260509060006 | 48 | 183 | 7.0 | 9.0 | 0.00 | 0.00 | 0.00 | 68 | 1009.1 |
| 20260509055507 | 48 | 177 | 7.0 | 9.0 | 0.00 | 0.00 | 0.00 | 68 | 1008.6 |
| 20260509054507 | 48 | 177 | 5.0 | 7.0 | 0.00 | 0.00 | 0.00 | 69 | 1009.1 |
| 20260509054008 | 48 | 174 | 5.0 | 7.0 | 0.00 | 0.00 | 0.00 | 69 | 1009.1 |
| 20260509053508 | 48 | 181 | 5.0 | 7.0 | 0.00 | 0.00 | 0.00 | 69 | 1009.1 |
| 20260509053008 | 48 | 181 | 5.0 | 7.0 | 0.00 | 0.00 | 0.00 | 68 | 1009.1 |
| 20260509052507 | 49 | 188 | 5.0 | 7.0 | 0.00 | 0.00 | 0.00 | 69 | 1009.1 |
| 20260509052008 | 49 | 188 | 5.0 | 7.0 | 0.00 | 0.00 | 0.00 | 69 | 1009.1 |
| 20260509051008 | 49 | 191 | 5.0 | 7.0 | 0.00 | 0.00 | 0.00 | 69 | 1009.1 |
| 20260509050507 | 49 | 193 | 5.0 | 7.0 | 0.00 | 0.00 | 0.00 | 69 | 1009.1 |
| 20260509045008 | 48 | 177 | 2.0 | 5.0 | 0.00 | 0.00 | 0.00 | 70 | 1009.1 |
| 20260509044507 | 48 | 180 | 5.0 | 5.0 | 0.00 | 0.00 | 0.00 | 70 | 1009.1 |
| 20260509043507 | 49 | 178 | 5.0 | 7.0 | 0.00 | 0.00 | 0.00 | 70 | 1009.1 |
| 20260509042506 | 49 | 161 | 5.0 | 5.0 | 0.00 | 0.00 | 0.00 | 71 | 1009.1 |
| 20260509042007 | 49 | 162 | 3.0 | 5.0 | 0.00 | 0.00 | 0.00 | 71 | 1009.1 |
| 20260509041507 | 49 | 160 | 2.0 | 7.0 | 0.00 | 0.00 | 0.00 | 71 | 1009.6 |
| 20260509040007 | 49 | 161 | 5.0 | 5.0 | 0.00 | 0.00 | 0.00 | 70 | 1010.1 |
| 20260509035008 | 49 | 165 | 5.0 | 5.0 | 0.00 | 0.00 | 0.00 | 71 | 1010.1 |
| 20260509034507 | 49 | 156 | 2.0 | 5.0 | 0.00 | 0.00 | 0.00 | 71 | 1010.1 |
| 20260509033508 | 49 | 162 | 5.0 | 5.0 | 0.00 | 0.00 | 0.00 | 71 | 1010.1 |
| 20260509033008 | 49 | 158 | 5.0 | 5.0 | 0.00 | 0.00 | 0.00 | 71 | 1010.1 |
| 20260509032506 | 49 | 161 | 4.0 | 5.0 | 0.00 | 0.00 | 0.00 | 71 | 1010.1 |
| 20260509032008 | 49 | 151 | 5.0 | 5.0 | 0.00 | 0.00 | 0.00 | 71 | 1010.1 |
| 20260509031507 | 49 | 160 | 5.0 | 5.0 | 0.00 | 0.00 | 0.00 | 71 | 1010.1 |
| 20260509030507 | 49 | 161 | 5.0 | 5.0 | 0.00 | 0.00 | 0.00 | 71 | 1010.1 |
| 20260509030006 | 48 | 161 | 2.0 | 5.0 | 0.00 | 0.00 | 0.00 | 71 | 1010.1 |
| 20260509025507 | 48 | 158 | 2.0 | 5.0 | 0.00 | 0.00 | 0.00 | 71 | 1010.1 |
| 20260509024506 | 49 | 144 | 2.0 | 5.0 | 0.00 | 0.00 | 0.00 | 70 | 1010.1 |
| 20260509024008 | 49 | 147 | 2.0 | 5.0 | 0.00 | 0.00 | 0.00 | 69 | 1010.1 |
| 20260509023507 | 49 | 139 | 2.0 | 5.0 | 0.00 | 0.00 | 0.00 | 69 | 1010.1 |
| 20260509022506 | 49 | 140 | 2.0 | 5.0 | 0.00 | 0.00 | 0.00 | 69 | 1010.1 |
| 20260509022007 | 49 | 139 | 2.0 | 5.0 | 0.00 | 0.00 | 0.00 | 69 | 1010.1 |
| 20260509021507 | 49 | 138 | 0.0 | 2.0 | 0.00 | 0.00 | 0.00 | 69 | 1010.1 |
| 20260509020508 | 48 | 123 | 0.0 | 0.0 | 0.00 | 0.00 | 0.00 | 69 | 1010.1 |
| 20260509015008 | 49 | 130 | 0.0 | 2.0 | 0.00 | 0.00 | 0.00 | 70 | 1010.1 |
| 20260509014506 | 49 | 135 | 0.0 | 2.0 | 0.00 | 0.00 | 0.00 | 70 | 1010.1 |
| 20260509014008 | 49 | 117 | 0.0 | 2.0 | 0.00 | 0.00 | 0.00 | 71 | 1010.1 |
| 20260509013507 | 49 | 127 | 0.0 | 5.0 | 0.00 | 0.00 | 0.00 | 71 | 1010.1 |
| 20260509013008 | 49 | 129 | 1.0 | 5.0 | 0.00 | 0.00 | 0.00 | 73 | 1010.1 |
| 20260509012506 | 49 | 137 | 2.0 | 5.0 | 0.00 | 0.00 | 0.00 | 74 | 1010.1 |
| 20260509012007 | 48 | 130 | 0.0 | 2.0 | 0.00 | 0.00 | 0.00 | 75 | 1010.1 |
| 20260509011507 | 48 | 134 | 0.0 | 5.0 | 0.00 | 0.00 | 0.00 | 76 | 1010.1 |
| 20260509011008 | 48 | 137 | 2.0 | 5.0 | 0.00 | 0.00 | 0.00 | 76 | 1010.1 |
| 20260509010507 | 48 | 112 | 2.0 | 5.0 | 0.00 | 0.00 | 0.00 | 76 | 1009.1 |
| 20260509010007 | 49 | 109 | 2.0 | 5.0 | 0.00 | 0.00 | 0.00 | 75 | 1009.1 |
| 20260509005506 | 49 | 114 | 2.0 | 5.0 | 0.00 | 0.00 | 0.00 | 74 | 1009.1 |
| 20260509005007 | 49 | 117 | 0.0 | 2.0 | 0.00 | 0.00 | 0.00 | 74 | 1009.1 |
| 20260509004507 | 49 | 126 | 0.0 | 2.0 | 0.00 | 0.00 | 0.00 | 74 | 1009.1 |
| 20260509004007 | 49 | 119 | 0.0 | 2.0 | 0.00 | 0.00 | 0.00 | 74 | 1009.1 |
| 20260509003507 | 49 | 122 | 0.0 | 2.0 | 0.00 | 0.00 | 0.00 | 74 | 1009.1 |
| 20260509003008 | 49 | 137 | 0.0 | 2.0 | 0.00 | 0.00 | 0.00 | 74 | 1009.1 |
| 20260509002506 | 49 | 128 | 0.0 | 2.0 | 0.00 | 0.00 | 0.00 | 75 | 1009.1 |
| 20260509002007 | 49 | 133 | 0.0 | 5.0 | 0.00 | 0.00 | 0.00 | 76 | 1009.1 |
| 20260509001506 | 49 | 120 | 2.0 | 5.0 | 0.00 | 0.00 | 0.00 | 77 | 1009.1 |
| 20260509001008 | 49 | 121 | 2.0 | 5.0 | 0.00 | 0.00 | 0.00 | 77 | 1009.1 |
| 20260509000507 | 49 | 114 | 2.0 | 5.0 | 0.00 | 0.00 | 0.00 | 78 | 1009.1 |
| 20260509000006 | 49 | 125 | 2.0 | 5.0 | 0.00 | 0.00 | 0.00 | 78 | 1009.1 |
| 20260508235506 | 50 | 115 | 2.0 | 5.0 | 0.00 | 0.00 | 0.00 | 77 | 1009.1 |
| 20260508235007 | 50 | 120 | 2.0 | 5.0 | 0.00 | 0.00 | 0.00 | 77 | 1009.1 |
| 20260508234507 | 50 | 109 | 2.0 | 5.0 | 0.00 | 0.00 | 0.00 | 76 | 1009.1 |
| 20260508233507 | 49 | 112 | 0.0 | 2.0 | 0.00 | 0.00 | 0.00 | 76 | 1009.1 |
| 20260508233007 | 49 | 110 | 2.0 | 2.0 | 0.00 | 0.00 | 0.00 | 76 | 1009.1 |
| 20260508232507 | 49 | 118 | 2.0 | 5.0 | 0.00 | 0.00 | 0.00 | 76 | 1009.1 |
| 20260508232007 | 49 | 115 | 2.0 | 5.0 | 0.00 | 0.00 | 0.00 | 76 | 1009.1 |
| 20260508231507 | 49 | 114 | 2.0 | 5.0 | 0.00 | 0.00 | 0.00 | 76 | 1009.1 |
| 20260508231008 | 50 | 115 | 2.0 | 5.0 | 0.00 | 0.00 | 0.00 | 77 | 1009.1 |
| 20260508230006 | 50 | 121 | 2.0 | 7.0 | 0.00 | 0.00 | 0.00 | 77 | 1008.9 |
| 20260508225507 | 50 | 97 | 2.0 | 7.0 | 0.00 | 0.00 | 0.00 | 77 | 1009.1 |
| 20260508225008 | 50 | 117 | 2.0 | 7.0 | 0.00 | 0.00 | 0.00 | 77 | 1009.1 |
| 20260508224506 | 51 | 100 | 2.0 | 5.0 | 0.00 | 0.00 | 0.00 | 77 | 1009.1 |
| 20260508224007 | 50 | 104 | 2.0 | 5.0 | 0.00 | 0.00 | 0.00 | 78 | 1008.6 |
| 20260508223507 | 50 | 116 | 3.0 | 9.0 | 0.00 | 0.00 | 0.00 | 78 | 1009.1 |
| 20260508223007 | 49 | 101 | 5.0 | 9.0 | 0.00 | 0.00 | 0.00 | 79 | 1009.1 |
| 20260508222506 | 49 | 89 | 7.0 | 9.0 | 0.00 | 0.00 | 0.00 | 79 | 1008.1 |
| 20260508222007 | 49 | 95 | 5.0 | 9.0 | 0.00 | 0.00 | 0.00 | 79 | 1008.1 |
| 20260508221506 | 49 | 119 | 5.0 | 9.0 | 0.00 | 0.00 | 0.00 | 79 | 1009.1 |
| 20260508221007 | 50 | 120 | 3.0 | 7.0 | 0.00 | 0.00 | 0.00 | 79 | 1009.1 |
| 20260508220507 | 50 | 114 | 5.0 | 7.0 | 0.00 | 0.00 | 0.00 | 79 | 1009.1 |
| 20260508220006 | 49 | 124 | 5.0 | 7.0 | 0.00 | 0.00 | 0.00 | 79 | 1009.1 |
| 20260508215507 | 49 | 82 | 7.0 | 7.0 | 0.00 | 0.00 | 0.00 | 79 | 1009.1 |
| 20260508215007 | 49 | 71 | 5.0 | 7.0 | 0.00 | 0.00 | 0.00 | 78 | 1009.1 |
| 20260508214506 | 49 | 113 | 5.0 | 9.0 | 0.00 | 0.00 | 0.00 | 78 | 1009.1 |
| 20260508213506 | 49 | 91 | 5.0 | 9.0 | 0.00 | 0.00 | 0.00 | 78 | 1009.1 |
| 20260508213007 | 49 | 108 | 5.0 | 7.0 | 0.00 | 0.00 | 0.00 | 78 | 1009.1 |
| 20260508211507 | 49 | 97 | 5.0 | 7.0 | 0.00 | 0.00 | 0.00 | 77 | 1009.1 |
| 20260508211007 | 49 | 94 | 5.0 | 7.0 | 0.00 | 0.00 | 0.00 | 76 | 1009.1 |
| 20260508210507 | 49 | 64 | 5.0 | 7.0 | 0.00 | 0.00 | 0.00 | 76 | 1009.1 |
| 20260508210006 | 49 | 61 | 5.0 | 7.0 | 0.00 | 0.00 | 0.00 | 76 | 1009.1 |
| 20260508205506 | 49 | 62 | 5.0 | 7.0 | 0.00 | 0.00 | 0.00 | 75 | 1009.1 |
| 20260508205007 | 49 | 80 | 5.0 | 7.0 | 0.00 | 0.00 | 0.00 | 75 | 1009.1 |
| 20260508204507 | 49 | 74 | 5.0 | 7.0 | 0.00 | 0.00 | 0.00 | 74 | 1009.1 |
| 20260508204007 | 49 | 80 | 5.0 | 7.0 | 0.00 | 0.00 | 0.00 | 74 | 1009.1 |
| 20260508203507 | 49 | 94 | 5.0 | 7.0 | 0.00 | 0.00 | 0.00 | 74 | 1009.1 |
| 20260508202505 | 50 | 97 | 5.0 | 5.0 | 0.00 | 0.00 | 0.00 | 72 | 1009.1 |
| 20260508202007 | 49 | 96 | 5.0 | 5.0 | 0.00 | 0.00 | 0.00 | 72 | 1009.1 |
| 20260508201506 | 49 | 64 | 2.0 | 5.0 | 0.00 | 0.00 | 0.00 | 72 | 1009.6 |
| 20260508201007 | 49 | 56 | 5.0 | 5.0 | 0.00 | 0.00 | 0.00 | 73 | 1010.1 |
| 20260508195506 | 49 | 57 | 5.0 | 7.0 | 0.00 | 0.00 | 0.00 | 73 | 1010.1 |
| 20260508195006 | 49 | 70 | 5.0 | 7.0 | 0.00 | 0.00 | 0.00 | 74 | 1010.1 |
| 20260508194506 | 49 | 63 | 5.0 | 7.0 | 0.00 | 0.00 | 0.00 | 74 | 1010.1 |
| 20260508194007 | 48 | 54 | 5.0 | 7.0 | 0.00 | 0.00 | 0.00 | 75 | 1010.1 |
| 20260508193507 | 48 | 34 | 5.0 | 7.0 | 0.00 | 0.00 | 0.00 | 75 | 1010.1 |
| 20260508193007 | 48 | 51 | 5.0 | 7.0 | 0.00 | 0.00 | 0.00 | 75 | 1010.1 |
| 20260508191506 | 48 | 48 | 5.0 | 7.0 | 0.00 | 0.00 | 0.00 | 75 | 1010.1 |
| 20260508191007 | 48 | 27 | 5.0 | 9.0 | 0.00 | 0.00 | 0.00 | 75 | 1010.1 |
| 20260508190507 | 47 | 21 | 7.0 | 9.0 | 0.00 | 0.00 | 0.00 | 75 | 1010.1 |
| 20260508190005 | 47 | 18 | 7.0 | 7.0 | 0.00 | 0.00 | 0.00 | 76 | 1010.1 |
| 20260508185506 | 48 | 33 | 5.0 | 7.0 | 0.00 | 0.00 | 0.00 | 76 | 1010.1 |
| 20260508185007 | 47 | 44 | 5.0 | 7.0 | 0.00 | 0.00 | 0.00 | 76 | 1010.1 |
| 20260508184506 | 47 | 44 | 7.0 | 9.0 | 0.00 | 0.00 | 0.00 | 76 | 1010.1 |
| 20260508183506 | 47 | 49 | 7.0 | 9.0 | 0.00 | 0.00 | 0.00 | 76 | 1010.1 |
| 20260508183007 | 47 | 46 | 7.0 | 9.0 | 0.00 | 0.00 | 0.00 | 76 | 1010.1 |
| 20260508182506 | 47 | 45 | 7.0 | 9.0 | 0.00 | 0.00 | 0.00 | 76 | 1010.1 |
| 20260508182006 | 48 | 37 | 7.0 | 9.0 | 0.00 | 0.00 | 0.00 | 76 | 1010.1 |
| 20260508180506 | 48 | 48 | 7.0 | 9.0 | 0.00 | 0.00 | 0.00 | 77 | 1010.1 |
| 20260508180006 | 48 | 47 | 7.0 | 7.0 | 0.00 | 0.00 | 0.00 | 77 | 1010.1 |
| 20260508175505 | 48 | 40 | 7.0 | 7.0 | 0.00 | 0.00 | 0.00 | 77 | 1010.1 |
| 20260508175007 | 48 | 53 | 7.0 | 9.0 | 0.00 | 0.00 | 0.00 | 77 | 1010.1 |
| 20260508174505 | 48 | 45 | 6.0 | 9.0 | 0.00 | 0.00 | 0.00 | 77 | 1010.1 |
| 20260508174006 | 48 | 45 | 5.0 | 7.0 | 0.00 | 0.00 | 0.00 | 77 | 1010.1 |
| 20260508173506 | 48 | 42 | 5.0 | 7.0 | 0.00 | 0.00 | 0.00 | 76 | 1010.1 |
| 20260508173007 | 48 | 43 | 6.0 | 7.0 | 0.00 | 0.00 | 0.00 | 76 | 1010.1 |
| 20260508172506 | 49 | 44 | 3.0 | 12.0 | 0.00 | 0.00 | 0.00 | 76 | 1010.1 |
| 20260508172006 | 48 | 62 | 7.0 | 12.0 | 0.00 | 0.00 | 0.00 | 76 | 1010.1 |
| 20260508171505 | 49 | 50 | 5.0 | 9.0 | 0.00 | 0.00 | 0.00 | 76 | 1010.1 |
| 20260508171006 | 49 | 56 | 6.0 | 9.0 | 0.00 | 0.00 | 0.00 | 75 | 1010.1 |
| 20260508170506 | 50 | 23 | 2.0 | 9.0 | 0.00 | 0.00 | 0.00 | 74 | 1010.1 |
| 20260508170006 | 50 | 51 | 2.0 | 5.0 | 0.00 | 0.00 | 0.00 | 75 | 1010.1 |
| 20260508165506 | 50 | 55 | 2.0 | 5.0 | 0.00 | 0.00 | 0.00 | 74 | 1010.1 |
| 20260508165007 | 50 | 52 | 2.0 | 5.0 | 0.00 | 0.00 | 0.00 | 74 | 1010.2 |
| 20260508164006 | 50 | 39 | 3.0 | 5.0 | 0.00 | 0.00 | 0.00 | 73 | 1011.1 |
| 20260508163507 | 50 | 28 | 3.0 | 5.0 | 0.00 | 0.00 | 0.00 | 72 | 1011.1 |
| 20260508163006 | 52 | 66 | 0.0 | 5.0 | 0.00 | 0.00 | 0.00 | 71 | 1012.1 |
| 20260508162007 | 50 | 249 | 5.0 | 7.0 | 0.00 | 0.00 | 0.00 | 71 | 1012.1 |
| 20260508161506 | 50 | 276 | 2.0 | 7.0 | 0.00 | 0.00 | 0.00 | 71 | 1012.1 |
| 20260508161007 | 50 | 263 | 2.0 | 5.0 | 0.00 | 0.00 | 0.00 | 72 | 1012.1 |
| 20260508160006 | 50 | 358 | 2.0 | 5.0 | 0.00 | 0.00 | 0.00 | 73 | 1012.1 |
| 20260508155505 | 49 | 280 | 2.0 | 9.0 | 0.00 | 0.00 | 0.00 | 74 | 1012.1 |
| 20260508155006 | 49 | 270 | 5.0 | 9.0 | 0.00 | 0.00 | 0.00 | 75 | 1012.1 |
| 20260508154006 | 48 | 214 | 7.0 | 12.0 | 0.00 | 0.00 | 0.00 | 77 | 1012.1 |
| 20260508153506 | 48 | 230 | 7.0 | 12.0 | 0.00 | 0.00 | 0.00 | 78 | 1012.1 |
| 20260508152505 | 48 | 234 | 7.0 | 9.0 | 0.00 | 0.00 | 0.00 | 80 | 1012.1 |
| 20260508152007 | 48 | 267 | 6.0 | 12.0 | 0.00 | 0.00 | 0.00 | 81 | 1012.1 |
| 20260508151506 | 47 | 227 | 9.0 | 12.0 | 0.00 | 0.00 | 0.00 | 83 | 1012.1 |
| 20260508151006 | 47 | 267 | 7.0 | 14.0 | 0.00 | 0.00 | 0.00 | 83 | 1012.1 |
| 20260508150507 | 47 | 262 | 9.0 | 14.0 | 0.00 | 0.00 | 0.00 | 83 | 1012.1 |
| 20260508150006 | 47 | 248 | 9.0 | 14.0 | 0.00 | 0.00 | 0.00 | 83 | 1012.1 |
| 20260508145506 | 46 | 244 | 12.0 | 14.0 | 0.00 | 0.00 | 0.00 | 84 | 1012.1 |
| 20260508144506 | 46 | 241 | 12.0 | 14.0 | 0.00 | 0.00 | 0.00 | 85 | 1012.1 |
| 20260508144006 | 46 | 245 | 12.0 | 14.0 | 0.00 | 0.00 | 0.00 | 85 | 1012.1 |
| 20260508143507 | 46 | 242 | 11.0 | 14.0 | 0.00 | 0.00 | 0.00 | 86 | 1012.1 |
| 20260508143007 | 45 | 240 | 12.0 | 14.0 | 0.00 | 0.00 | 0.00 | 86 | 1012.1 |
| 20260508142505 | 45 | 251 | 12.0 | 14.0 | 0.00 | 0.00 | 0.00 | 87 | 1012.1 |
| 20260508142006 | 45 | 250 | 12.0 | 14.0 | 0.00 | 0.00 | 0.00 | 87 | 1012.1 |
| 20260508141506 | 45 | 225 | 12.0 | 14.0 | 0.00 | 0.00 | 0.00 | 88 | 1012.1 |
| 20260508141006 | 45 | 251 | 12.0 | 14.0 | 0.00 | 0.00 | 0.00 | 88 | 1012.1 |
| 20260508135506 | 44 | 235 | 9.0 | 12.0 | 0.00 | 0.00 | 0.00 | 91 | 1012.1 |
| 20260508135006 | 44 | 228 | 9.0 | 12.0 | 0.00 | 0.00 | 0.00 | 92 | 1012.1 |
| 20260508134007 | 43 | 244 | 12.0 | 16.0 | 0.00 | 0.00 | 0.00 | 93 | 1012.1 |
| 20260508133506 | 42 | 252 | 14.0 | 16.0 | 0.00 | 0.00 | 0.00 | 93 | 1012.1 |
| 20260508133006 | 43 | 248 | 12.0 | 16.0 | 0.00 | 0.00 | 0.00 | 93 | 1012.1 |
| 20260508132506 | 43 | 223 | 12.0 | 16.0 | 0.00 | 0.00 | 0.00 | 93 | 1012.1 |
| 20260508132007 | 43 | 225 | 14.0 | 16.0 | 0.00 | 0.00 | 0.00 | 94 | 1012.1 |
| 20260508131505 | 43 | 253 | 14.0 | 18.0 | 0.00 | 0.00 | 0.00 | 93 | 1012.1 |
| 20260508131006 | 43 | 249 | 15.0 | 18.0 | 0.00 | 0.00 | 0.00 | 94 | 1012.1 |
| 20260508130506 | 43 | 246 | 12.0 | 18.0 | 0.00 | 0.00 | 0.00 | 94 | 1012.1 |
| 20260508130005 | 43 | 240 | 11.0 | 14.0 | 0.00 | 0.00 | 0.00 | 94 | 1012.1 |
| 20260508125505 | 43 | 246 | 9.0 | 14.0 | 0.00 | 0.00 | 0.00 | 93 | 1012.1 |
| 20260508125006 | 43 | 232 | 9.0 | 16.0 | 0.00 | 0.00 | 0.00 | 93 | 1012.1 |
| 20260508124006 | 43 | 234 | 10.0 | 16.0 | 0.00 | 0.00 | 0.00 | 94 | 1012.1 |
| 20260508123506 | 43 | 286 | 9.0 | 14.0 | 0.00 | 0.00 | 0.00 | 95 | 1012.1 |
| 20260508122505 | 44 | 263 | 9.0 | 16.0 | 0.00 | 0.00 | 0.00 | 95 | 1012.1 |
| 20260508122007 | 44 | 259 | 12.0 | 16.0 | 0.00 | 0.00 | 0.00 | 95 | 1012.1 |
| 20260508121506 | 44 | 250 | 10.0 | 16.0 | 0.00 | 0.00 | 0.00 | 95 | 1012.1 |
| 20260508121006 | 44 | 253 | 9.0 | 12.0 | 0.00 | 0.00 | 0.00 | 95 | 1012.1 |
| 20260508120005 | 44 | 283 | 7.0 | 9.0 | 0.00 | 0.00 | 0.00 | 95 | 1012.1 |
| 20260508115505 | 44 | 256 | 7.0 | 9.0 | 0.00 | 0.00 | 0.00 | 95 | 1012.1 |
| 20260508115006 | 44 | 252 | 7.0 | 9.0 | 0.00 | 0.00 | 0.00 | 96 | 1012.1 |
| 20260508114505 | 44 | 260 | 5.0 | 7.0 | 0.00 | 0.00 | 0.00 | 96 | 1012.1 |
| 20260508114007 | 44 | 251 | 5.0 | 7.0 | 0.00 | 0.00 | 0.00 | 96 | 1012.1 |
| 20260508113506 | 44 | 244 | 5.0 | 7.0 | 0.00 | 0.00 | 0.00 | 96 | 1011.7 |
| 20260508113006 | 44 | 244 | 7.0 | 7.0 | 0.00 | 0.00 | 0.00 | 96 | 1011.1 |
| 20260508112505 | 44 | 247 | 6.0 | 7.0 | 0.00 | 0.00 | 0.00 | 97 | 1011.1 |
| 20260508112007 | 44 | 252 | 5.0 | 7.0 | 0.00 | 0.00 | 0.00 | 97 | 1011.1 |
| 20260508111506 | 44 | 248 | 5.0 | 7.0 | 0.00 | 0.00 | 0.00 | 97 | 1011.1 |
| 20260508111007 | 44 | 260 | 5.0 | 7.0 | 0.00 | 0.00 | 0.00 | 97 | 1010.6 |
| 20260508110506 | 44 | 238 | 5.0 | 7.0 | 0.00 | 0.00 | 0.00 | 97 | 1010.2 |
| 20260508105505 | 44 | 241 | 5.0 | 7.0 | 0.00 | 0.00 | 0.00 | 98 | 1010.4 |
| 20260508105007 | 44 | 207 | 7.0 | 7.0 | 0.00 | 0.00 | 0.00 | 98 | 1010.1 |
| 20260508104508 | 44 | 216 | 5.0 | 7.0 | 0.00 | 0.00 | 0.00 | 98 | 1010.1 |
| 20260508103509 | 43 | 207 | 6.0 | 7.0 | 0.00 | 0.00 | 0.00 | 99 | 1010.1 |
| 20260508103009 | 43 | 226 | 5.0 | 7.0 | 0.00 | 0.00 | 0.00 | 99 | 1010.5 |
| 20260508102507 | 43 | 237 | 5.0 | 7.0 | 0.00 | 0.00 | 0.00 | 99 | 1010.1 |
| 20260508102008 | 43 | 240 | 5.0 | 7.0 | 0.00 | 0.00 | 0.00 | 99 | 1010.1 |